SV1BYK-4 Weather Reports


Display with metric or nautical units.
time (UTC)temp
F
wind
direction
speed
MPH
gust
MPH
rain 1hr
in
rain 24hr
in
rain mn
in
humidity
%
barometer
mb
20260905091511 90 264 2.0 15.0 0.00 0.00 0.00 33 993.6
20260905083911 90 273 3.0 11.0 0.00 0.00 0.00 33 993.5
20260905083011 90 265 2.0 13.0 0.00 0.00 0.00 34 993.5
20260905081211 88 245 4.0 20.0 0.00 0.00 0.00 34 993.6
20260905075411 89 253 3.0 11.0 0.00 0.00 0.00 34 993.6
20260905074511 88 296 4.0 13.0 0.00 0.00 0.00 34 993.4
20260905073611 88 247 4.0 8.0 0.00 0.00 0.00 35 993.3
20260905071811 87 271 5.0 9.0 0.00 0.00 0.00 35 993.2
20260905070911 87 222 5.0 8.0 0.00 0.00 0.00 35 993.1
20260905070011 87 227 2.0 11.0 0.00 0.00 0.00 35 993.2
20260905065111 87 230 2.0 9.0 0.00 0.00 0.00 35 993.1
20260905060611 85 301 1.0 11.0 0.00 0.00 0.00 37 993.2
20260905055711 84 293 1.0 6.0 0.00 0.00 0.00 41 993.2
20260905054811 83 306 2.0 8.0 0.00 0.00 0.00 43 993.2
20260905053911 82 310 4.0 11.0 0.00 0.00 0.00 45 993.0
20260905053011 82 313 2.0 13.0 0.00 0.00 0.00 45 992.9
20260905052111 81 303 4.0 17.0 0.00 0.00 0.00 47 992.8
20260905051211 81 308 2.0 16.0 0.00 0.00 0.00 48 992.9
20260905050311 80 320 8.0 16.0 0.00 0.00 0.00 49 992.9
20260905044511 79 308 4.0 6.0 0.00 0.00 0.00 49 992.8
20260905042711 78 284 2.0 8.0 0.00 0.00 0.00 52 992.8
20260905040911 79 289 2.0 2.0 0.00 0.00 0.00 52 992.6
20260905035111 79 309 2.0 8.0 0.00 0.00 0.00 52 992.3
20260905034211 79 303 3.0 8.0 0.00 0.00 0.00 52 992.3
20260905033311 78 284 1.0 4.0 0.00 0.00 0.00 54 992.1
20260905032411 79 301 0.0 9.0 0.00 0.00 0.00 54 992.3
20260905030611 79 300 0.0 9.0 0.00 0.00 0.00 54 992.1
20260905025711 79 315 1.0 11.0 0.00 0.00 0.00 54 992.0
20260905024811 79 316 2.0 9.0 0.00 0.00 0.00 52 992.1
20260905023911 79 306 5.0 11.0 0.00 0.00 0.00 50 992.2
20260905023011 79 358 0.0 2.0 0.00 0.00 0.00 48 992.2
20260905021211 79 355 2.0 2.0 0.00 0.00 0.00 46 992.1
20260905020311 78 51 0.0 2.0 0.00 0.00 0.00 46 992.2
20260905015411 79 332 0.0 2.0 0.00 0.00 0.00 46 992.1
20260905014511 79 314 0.0 4.0 0.00 0.00 0.00 45 992.1
20260905012711 80 305 2.0 6.0 0.00 0.00 0.00 44 992.0
20260905011811 80 307 2.0 6.0 0.00 0.00 0.00 44 991.8
20260905010011 80 289 0.0 4.0 0.00 0.00 0.00 43 991.9
20260905005111 80 267 0.0 2.0 0.00 0.00 0.00 43 991.8
20260905003311 80 292 0.0 2.0 0.00 0.00 0.00 43 991.8
20260905002411 80 292 0.0 2.0 0.00 0.00 0.00 42 991.8
20260905001511 80 292 0.0 2.0 0.00 0.00 0.00 41 991.9
20260905000611 80 292 2.0 2.0 0.00 0.00 0.00 41 991.9
20260904234811 80 90 0.0 2.0 0.00 0.00 0.00 42 991.9
20260904233911 80 90 0.0 2.0 0.00 0.00 0.00 41 991.9
20260904233011 80 90 0.0 2.0 0.00 0.00 0.00 42 992.0
20260904232111 80 90 0.0 2.0 0.00 0.00 0.00 42 992.0
20260904231211 80 91 0.0 2.0 0.00 0.00 0.00 42 992.1
20260904230311 80 126 2.0 2.0 0.00 0.00 0.00 41 992.1
20260904225411 80 0 0.0 0.0 0.00 0.00 0.00 41 992.2
20260904223611 80 270 0.0 2.0 0.00 0.00 0.00 41 992.1
20260904222711 81 282 1.0 2.0 0.00 0.00 0.00 40 992.3
20260904221811 81 296 0.0 4.0 0.00 0.00 0.00 39 992.4
20260904220911 82 269 0.0 4.0 0.00 0.00 0.00 39 992.4
20260904220011 81 225 2.0 2.0 0.00 0.00 0.00 40 992.3
20260904215111 81 211 0.0 2.0 0.00 0.00 0.00 41 992.3
20260904214211 80 0 0.0 0.0 0.00 0.00 0.00 42 992.3
20260904213311 80 0 0.0 0.0 0.00 0.00 0.00 42 992.3
20260904212411 80 0 0.0 0.0 0.00 0.00 0.00 42 992.2
20260904211511 81 203 0.0 2.0 0.00 0.00 0.00 41 992.2
20260904210611 80 0 0.0 0.0 0.00 0.00 0.00 42 992.3
20260904205711 81 0 0.0 0.0 0.00 0.00 0.00 42 992.2
20260904204811 81 0 0.0 0.0 0.00 0.00 0.00 42 992.3
20260904203911 81 0 0.0 0.0 0.00 0.00 0.00 42 992.2
20260904203011 81 248 0.0 2.0 0.00 0.00 0.00 42 992.2
20260904202111 81 248 0.0 2.0 0.00 0.00 0.00 41 992.2
20260904201211 81 248 0.0 2.0 0.00 0.00 0.00 41 992.3
20260904200311 82 238 0.0 2.0 0.00 0.00 0.00 41 992.3
20260904194511 82 223 0.0 2.0 0.00 0.00 0.00 40 992.1
20260904192711 82 243 0.0 2.0 0.00 0.00 0.00 40 992.3
20260904191811 82 222 0.0 2.0 0.00 0.00 0.00 41 992.2
20260904190911 82 0 0.0 0.0 0.00 0.00 0.00 42 992.3
20260904190011 82 248 0.0 2.0 0.00 0.00 0.00 41 992.1
20260904185111 83 237 0.0 2.0 0.00 0.00 0.00 41 991.9
20260904184211 83 222 0.0 2.0 0.00 0.00 0.00 41 992.0
20260904183311 83 230 1.0 2.0 0.00 0.00 0.00 41 991.9
20260904182411 83 237 1.0 2.0 0.00 0.00 0.00 40 991.8
20260904181511 83 258 1.0 4.0 0.00 0.00 0.00 40 991.7
20260904180611 84 247 0.0 4.0 0.00 0.00 0.00 40 991.5
20260904175711 84 225 1.0 4.0 0.00 0.00 0.00 39 991.4
20260904174811 85 300 2.0 9.0 0.00 0.00 0.00 38 991.2
20260904173911 85 296 5.0 11.0 0.00 0.00 0.00 37 991.1
20260904173011 85 299 1.0 13.0 0.00 0.00 0.00 36 991.0
20260904172111 86 288 2.0 13.0 0.00 0.00 0.00 35 990.9
20260904171211 86 306 3.0 15.0 0.00 0.00 0.00 35 990.7
20260904170311 86 325 5.0 15.0 0.00 0.00 0.00 35 990.5
20260904165411 86 315 4.0 11.0 0.00 0.00 0.00 35 990.3
20260904164511 87 328 4.0 11.0 0.00 0.00 0.00 34 990.4
20260904163611 87 331 2.0 24.0 0.00 0.00 0.00 34 990.3
20260904162711 87 331 9.0 20.0 0.00 0.00 0.00 34 990.4
20260904161811 88 332 7.0 25.0 0.00 0.00 0.00 37 990.3
20260904160011 88 316 10.0 23.0 0.00 0.00 0.00 36 990.2
20260904155111 89 295 8.0 17.0 0.00 0.00 0.00 34 990.2
20260904154211 89 314 6.0 16.0 0.00 0.00 0.00 35 990.3
20260904153311 90 314 3.0 21.0 0.00 0.00 0.00 33 990.3
20260904152411 89 294 5.0 20.0 0.00 0.00 0.00 35 990.2
20260904151511 89 283 6.0 18.0 0.00 0.00 0.00 35 990.3
20260904150611 91 302 4.0 17.0 0.00 0.00 0.00 33 990.2
20260904145711 90 307 2.0 24.0 0.00 0.00 0.00 34 990.3
20260904144811 90 289 8.0 22.0 0.00 0.00 0.00 34 990.3
20260904143911 92 334 2.0 22.0 0.00 0.00 0.00 33 990.2
20260904143011 92 330 4.0 25.0 0.00 0.00 0.00 33 990.4
20260904142111 92 277 3.0 9.0 0.00 0.00 0.00 32 990.3
20260904140311 91 327 8.0 18.0 0.00 0.00 0.00 33 990.3
20260904135411 92 321 4.0 15.0 0.00 0.00 0.00 32 990.2
20260904134511 93 297 4.0 17.0 0.00 0.00 0.00 32 990.2
20260904133611 93 247 7.0 15.0 0.00 0.00 0.00 33 990.1
20260904132711 92 251 8.0 14.0 0.00 0.00 0.00 34 990.1
20260904131811 93 292 2.0 22.0 0.00 0.00 0.00 33 990.2
20260904130911 92 279 6.0 13.0 0.00 0.00 0.00 33 990.2
20260904130011 93 282 4.0 11.0 0.00 0.00 0.00 33 990.2
20260904125111 94 340 2.0 17.0 0.00 0.00 0.00 33 990.1
20260904124211 93 258 2.0 11.0 0.00 0.00 0.00 33 990.2
20260904123311 92 242 3.0 9.0 0.00 0.00 0.00 33 990.2
20260904122411 93 273 4.0 18.0 0.00 0.00 0.00 33 990.4
20260904121511 93 270 2.0 8.0 0.00 0.00 0.00 33 990.4
20260904120611 93 274 2.0 14.0 0.00 0.00 0.00 33 990.5
20260904115711 91 281 2.0 22.0 0.00 0.00 0.00 33 990.6
20260904113911 92 240 2.0 9.0 0.00 0.00 0.00 33 990.8
20260904112111 92 279 2.0 7.0 0.00 0.00 0.00 34 990.8
20260904111211 92 267 1.0 8.0 0.00 0.00 0.00 33 990.9
20260904110311 91 255 4.0 8.0 0.00 0.00 0.00 35 990.9
20260904105411 92 263 2.0 7.0 0.00 0.00 0.00 34 990.9
20260904104511 90 293 2.0 15.0 0.00 0.00 0.00 36 990.9
20260904103611 91 302 4.0 16.0 0.00 0.00 0.00 36 991.0
20260904102711 89 287 8.0 23.0 0.00 0.00 0.00 40 990.9
20260904101811 91 234 4.0 14.0 0.00 0.00 0.00 39 990.8
20260904100011 90 272 2.0 16.0 0.00 0.00 0.00 39 990.9
20260904095111 90 279 4.0 21.0 0.00 0.00 0.00 38 991.0
20260904094211 89 287 11.0 25.0 0.00 0.00 0.00 40 991.0